Simultaneous Nadir Overpasses (SNOs) Predictions

Prediction of SNOs between AURA and NPP Satellite Orbit:

Table of predicted SNOs for the next 14.0 days since TLE Epoch: 11/11/2023
Index Date (AURA) Time (AURA) Lat,Lon (AURA) SZA (AURA ) Date (NPP) Time (NPP) Lat,Lon (NPP) SZA (NPP ) Distance(km) Time Diff (sec)
1 11/12/2023 02:07:35 -80.07,-129.78 72.02 11/12/2023 02:06:47 -80.07,-129.69 72.00 1.83 48
2 11/12/2023 02:56:55 80.21, 39.10 107.79 11/12/2023 02:57:27 80.20, 39.07 107.77 0.72 32
3 11/14/2023 16:43:01 -80.04, 11.17 71.29 11/14/2023 16:42:13 -80.05, 11.19 71.25 0.45 48
4 11/14/2023 17:32:21 80.18,-179.99 108.53 11/14/2023 17:32:53 80.18, 179.92 108.52 1.79 32
5 11/17/2023 07:18:24 -80.07, 152.57 70.66 11/17/2023 07:17:37 -80.07, 152.63 70.64 0.98 47
6 11/17/2023 08:07:44 80.21, -38.60 109.15 11/17/2023 08:08:17 80.20, -38.65 109.14 1.09 33
7 11/19/2023 21:53:47 -80.02, -66.74 69.95 11/19/2023 21:53:03 -80.01, -66.89 69.89 3.05 44
8 11/19/2023 22:43:04 80.25, 102.95 109.72 11/19/2023 22:43:39 80.25, 103.03 109.68 1.52 35
9 11/22/2023 12:29:06 -80.08, 74.98 69.45 11/22/2023 12:28:25 -80.09, 75.04 69.43 1.29 41
10 11/22/2023 13:18:25 80.24,-115.93 110.32 11/22/2023 13:19:04 80.24,-115.96 110.30 0.64 39



Historial Predications of SNOs between AURA and NPP
